CFG149 LEPA-EDDC

Flight info

Callsign CFG149
Flight time 2h 1m
Altitude 36000
Route ISTER DCT NIVDA DCT OMEDA DCT RAPUR DCT TORTU DCT ERTEV DCT GOLAS DCT APRIV DCT LAMPO DCT VESAL DCT MOBDO/N0450F370 DCT VERDA DCT NEMAL DCT MEDEL DCT APRAQ DCT OKL DCT EVIKU DCT HDO
Aircraft A320/M-SDE3FGHIRWY/LB1

Departure

Time 2026-05-08 14:49
Airport Palma de Mallorca Airport (LEPA)

Arrival

Time 2026-05-08 16:50
Airport Dresden Airport (EDDC)
Time Latitude Longitude Altitude Speed Heading
2026-05-08 14:21 39.55001 2.73440 27 ft 0 kts 167°
2026-05-08 14:37 39.55013 2.73436 31 ft 2 kts 167°
2026-05-08 14:38 39.55024 2.73432 31 ft 1 kts 167°
2026-05-08 14:38 39.55026 2.73432 31 ft 1 kts 167°
2026-05-08 14:38 39.55032 2.73430 31 ft 1 kts 158°
2026-05-08 14:38 39.55041 2.73425 29 ft 1 kts 101°
2026-05-08 14:39 39.55041 2.73412 29 ft 1 kts 69°
2026-05-08 14:39 39.55039 2.73404 30 ft 0 kts 58°
2026-05-08 14:40 39.55039 2.73405 30 ft 1 kts 58°
2026-05-08 14:40 39.55061 2.73450 27 ft 8 kts 59°
2026-05-08 14:41 39.55087 2.73507 27 ft 9 kts 58°
2026-05-08 14:41 39.55118 2.73573 25 ft 7 kts 59°
2026-05-08 14:41 39.55145 2.73631 25 ft 7 kts 58°
2026-05-08 14:41 39.55174 2.73691 24 ft 7 kts 59°
2026-05-08 14:42 39.55173 2.73750 24 ft 6 kts 110°
2026-05-08 14:42 39.55175 2.73835 25 ft 10 kts 110°
2026-05-08 14:42 39.55135 2.73884 27 ft 8 kts 150°
2026-05-08 14:42 39.55095 2.73914 28 ft 9 kts 150°
2026-05-08 14:43 39.55017 2.73975 27 ft 13 kts 148°
2026-05-08 14:43 39.54943 2.74036 28 ft 15 kts 147°
2026-05-08 14:43 39.54869 2.74095 29 ft 10 kts 148°
2026-05-08 14:43 39.54799 2.74124 29 ft 11 kts 197°
2026-05-08 14:44 39.54758 2.74063 29 ft 9 kts 237°
2026-05-08 14:44 39.54711 2.73965 30 ft 14 kts 238°
2026-05-08 14:44 39.54667 2.73874 31 ft 14 kts 239°
2026-05-08 14:44 39.54608 2.73747 31 ft 17 kts 238°
2026-05-08 14:45 39.54552 2.73627 32 ft 13 kts 239°
2026-05-08 14:45 39.54508 2.73536 33 ft 13 kts 238°
2026-05-08 14:45 39.54459 2.73433 33 ft 16 kts 239°
2026-05-08 14:45 39.54402 2.73310 34 ft 14 kts 239°
2026-05-08 14:46 39.54355 2.73210 35 ft 11 kts 237°
2026-05-08 14:46 39.54308 2.73116 35 ft 11 kts 238°
2026-05-08 14:46 39.54259 2.73089 36 ft 6 kts 163°
2026-05-08 14:46 39.54218 2.73120 36 ft 13 kts 149°
2026-05-08 14:47 39.54152 2.73185 37 ft 9 kts 118°
2026-05-08 14:47 39.54158 2.73249 36 ft 6 kts 56°
2026-05-08 14:47 39.54162 2.73259 34 ft 0 kts 60°
2026-05-08 14:48 39.54183 2.73305 35 ft 29 kts 58°
2026-05-08 14:48 39.54424 2.73809 30 ft 98 kts 59°
2026-05-08 14:48 39.54883 2.74778 30 ft 152 kts 58°
2026-05-08 14:48 39.55507 2.76075 248 ft 177 kts 58°
2026-05-08 14:49 39.56133 2.77455 1006 ft 176 kts 62°
2026-05-08 14:49 39.56759 2.78837 1653 ft 181 kts 62°
2026-05-08 14:49 39.57393 2.80240 2314 ft 184 kts 63°
2026-05-08 14:49 39.58060 2.81717 2834 ft 199 kts 62°
2026-05-08 14:50 39.58787 2.83326 3313 ft 212 kts 62°
2026-05-08 14:50 39.59546 2.84994 3983 ft 217 kts 62°
2026-05-08 14:50 39.60324 2.86692 4723 ft 220 kts 62°
2026-05-08 14:50 39.61113 2.88413 5395 ft 225 kts 61°
2026-05-08 14:51 39.61921 2.90180 6075 ft 229 kts 61°
2026-05-08 14:51 39.62749 2.92037 6469 ft 249 kts 62°
2026-05-08 14:51 39.63641 2.94096 6783 ft 273 kts 62°
2026-05-08 14:51 39.64586 2.96282 7307 ft 287 kts 62°
2026-05-08 14:52 39.65577 2.98578 7998 ft 294 kts 61°
2026-05-08 14:52 39.67629 3.03320 9431 ft 308 kts 60°
2026-05-08 14:52 39.68695 3.05777 10110 ft 315 kts 60°
2026-05-08 14:53 39.69766 3.08251 10764 ft 321 kts 60°
2026-05-08 14:53 39.70869 3.10805 11473 ft 325 kts 62°
2026-05-08 14:53 39.71612 3.13590 12120 ft 330 kts 81°
2026-05-08 14:53 39.72027 3.16543 12753 ft 337 kts 81°
2026-05-08 14:54 39.72457 3.19647 12931 ft 360 kts 81°
2026-05-08 14:54 39.72914 3.22955 13077 ft 383 kts 81°
2026-05-08 14:54 39.73399 3.26451 13209 ft 404 kts 81°
2026-05-08 14:54 39.73913 3.30127 13400 ft 421 kts 81°
2026-05-08 14:55 39.74441 3.33899 13582 ft 437 kts 81°
2026-05-08 14:55 39.74994 3.37847 14013 ft 446 kts 81°
2026-05-08 14:55 39.75554 3.41845 14496 ft 451 kts 81°
2026-05-08 14:55 39.76115 3.45875 15018 ft 454 kts 81°
2026-05-08 14:56 39.76675 3.49924 15530 ft 457 kts 82°
2026-05-08 14:56 39.77239 3.54007 16027 ft 460 kts 82°
2026-05-08 14:56 39.77798 3.58070 16502 ft 464 kts 82°
2026-05-08 14:56 39.78367 3.62206 16974 ft 467 kts 82°
2026-05-08 14:57 39.78939 3.66377 17437 ft 470 kts 82°
2026-05-08 14:57 39.79515 3.70579 17884 ft 473 kts 82°
2026-05-08 14:57 39.80336 3.74724 18290 ft 479 kts 69°
2026-05-08 14:57 39.81925 3.78550 18677 ft 482 kts 55°
2026-05-08 14:58 39.83834 3.82151 19070 ft 484 kts 54°
2026-05-08 14:58 39.85764 3.85758 19457 ft 486 kts 54°
2026-05-08 14:58 39.87709 3.89375 19824 ft 488 kts 54°
2026-05-08 14:58 39.89662 3.93012 20182 ft 489 kts 54°
2026-05-08 14:59 39.91607 3.96653 20527 ft 491 kts 54°
2026-05-08 14:59 39.95497 4.03969 21192 ft 495 kts 55°
2026-05-08 14:59 39.97461 4.07676 21512 ft 497 kts 55°
2026-05-08 15:00 39.99429 4.11397 21829 ft 498 kts 55°
2026-05-08 15:00 40.01396 4.15124 22145 ft 500 kts 55°
2026-05-08 15:00 40.03383 4.18885 22483 ft 500 kts 55°
2026-05-08 15:00 40.05326 4.22566 22995 ft 497 kts 55°
2026-05-08 15:01 40.07288 4.26289 23534 ft 494 kts 55°
2026-05-08 15:01 40.09231 4.29980 23957 ft 493 kts 55°
2026-05-08 15:01 40.11188 4.33704 24076 ft 498 kts 55°
2026-05-08 15:01 40.13139 4.37424 24189 ft 503 kts 55°
2026-05-08 15:02 40.15127 4.41218 24308 ft 508 kts 55°
2026-05-08 15:02 40.17133 4.45055 24424 ft 511 kts 55°
2026-05-08 15:02 40.19146 4.48912 24534 ft 514 kts 55°
2026-05-08 15:02 40.21170 4.52787 24667 ft 516 kts 55°
2026-05-08 15:03 40.23179 4.56631 24823 ft 517 kts 55°
2026-05-08 15:03 40.25212 4.60522 25005 ft 517 kts 55°
2026-05-08 15:03 40.27243 4.64417 25207 ft 517 kts 55°
2026-05-08 15:03 40.29272 4.68310 25404 ft 517 kts 55°
2026-05-08 15:04 40.31302 4.72219 25599 ft 517 kts 55°
2026-05-08 15:04 40.33324 4.76125 25799 ft 517 kts 55°
2026-05-08 15:04 40.35343 4.80029 26008 ft 517 kts 55°
2026-05-08 15:04 40.37339 4.83884 26228 ft 516 kts 55°
2026-05-08 15:05 40.39361 4.87789 26452 ft 516 kts 55°
2026-05-08 15:05 40.41371 4.91674 26688 ft 515 kts 55°
2026-05-08 15:05 40.43384 4.95577 26939 ft 514 kts 55°
2026-05-08 15:05 40.45393 4.99480 27185 ft 513 kts 55°
2026-05-08 15:06 40.47388 5.03363 27430 ft 512 kts 56°
2026-05-08 15:06 40.49350 5.07194 27674 ft 511 kts 56°
2026-05-08 15:06 40.51335 5.11069 27933 ft 511 kts 56°
2026-05-08 15:06 40.53323 5.14954 28185 ft 510 kts 56°
2026-05-08 15:07 40.55305 5.18830 28443 ft 509 kts 56°
2026-05-08 15:07 40.57285 5.22699 28697 ft 509 kts 56°
2026-05-08 15:07 40.59264 5.26571 28958 ft 509 kts 56°
2026-05-08 15:07 40.61238 5.30437 29194 ft 509 kts 56°
2026-05-08 15:08 40.63213 5.34314 29454 ft 508 kts 56°
2026-05-08 15:08 40.64516 5.36875 29621 ft 508 kts 56°
2026-05-08 15:08 40.67126 5.42009 29974 ft 508 kts 56°
2026-05-08 15:08 40.69093 5.45883 30215 ft 507 kts 56°
2026-05-08 15:09 40.71058 5.49759 30431 ft 507 kts 57°
2026-05-08 15:09 40.73019 5.53636 30644 ft 507 kts 57°
2026-05-08 15:09 40.74958 5.57475 30871 ft 507 kts 57°
2026-05-08 15:09 40.76907 5.61343 31103 ft 506 kts 57°
2026-05-08 15:10 40.78859 5.65217 31328 ft 506 kts 57°
2026-05-08 15:10 40.80810 5.69095 31556 ft 505 kts 57°
2026-05-08 15:10 40.82101 5.71662 31697 ft 505 kts 57°
2026-05-08 15:10 40.84681 5.76799 31985 ft 505 kts 57°
2026-05-08 15:11 40.86629 5.80685 32207 ft 506 kts 57°
2026-05-08 15:11 40.87940 5.83304 32334 ft 506 kts 57°
2026-05-08 15:11 40.89857 5.87137 32533 ft 506 kts 57°
2026-05-08 15:11 40.91803 5.91027 32734 ft 507 kts 57°
2026-05-08 15:12 40.93755 5.94936 32919 ft 508 kts 57°
2026-05-08 15:12 40.95706 5.98850 33115 ft 508 kts 57°
2026-05-08 15:12 40.97654 6.02766 33314 ft 509 kts 57°
2026-05-08 15:12 40.99602 6.06686 33507 ft 510 kts 57°
2026-05-08 15:13 41.01554 6.10616 33702 ft 510 kts 57°
2026-05-08 15:13 41.03482 6.14497 33898 ft 511 kts 57°
2026-05-08 15:13 41.05446 6.18452 34093 ft 511 kts 57°
2026-05-08 15:13 41.07381 6.22351 34276 ft 511 kts 57°
2026-05-08 15:14 41.09337 6.26306 34470 ft 510 kts 57°
2026-05-08 15:14 41.11280 6.30250 34670 ft 510 kts 57°
2026-05-08 15:14 41.13221 6.34196 34878 ft 509 kts 57°
2026-05-08 15:14 41.15159 6.38135 35076 ft 509 kts 57°
2026-05-08 15:15 41.17095 6.42075 35268 ft 508 kts 56°
2026-05-08 15:15 41.19022 6.46004 35455 ft 508 kts 56°
2026-05-08 15:15 41.20947 6.49936 35644 ft 507 kts 56°
2026-05-08 15:15 41.22845 6.53817 35819 ft 506 kts 56°
2026-05-08 15:16 41.24843 6.57672 35982 ft 505 kts 49°
2026-05-08 15:16 41.27067 6.61272 36039 ft 504 kts 49°
2026-05-08 15:16 41.29445 6.64687 36036 ft 500 kts 37°
2026-05-08 15:16 41.32241 6.67395 36039 ft 496 kts 30°
2026-05-08 15:17 41.37989 6.72480 36036 ft 495 kts 30°
2026-05-08 15:17 41.43713 6.77521 36036 ft 495 kts 30°
2026-05-08 15:18 41.49458 6.82616 36036 ft 494 kts 30°
2026-05-08 15:18 41.55192 6.87722 36041 ft 494 kts 30°
2026-05-08 15:19 41.60879 6.92788 36048 ft 494 kts 30°
2026-05-08 15:19 41.66588 6.97891 36057 ft 493 kts 30°
2026-05-08 15:20 41.72296 7.03004 36060 ft 492 kts 30°
2026-05-08 15:20 41.77950 7.08079 36059 ft 491 kts 30°
2026-05-08 15:21 41.83625 7.13184 36057 ft 490 kts 30°
2026-05-08 15:21 41.89263 7.18259 36056 ft 489 kts 30°
2026-05-08 15:22 41.94919 7.23367 36056 ft 488 kts 30°
2026-05-08 15:22 42.00551 7.28471 36051 ft 487 kts 30°
2026-05-08 15:23 42.06160 7.33563 36013 ft 489 kts 30°
2026-05-08 15:23 42.11822 7.38705 36006 ft 491 kts 30°
2026-05-08 15:24 42.17493 7.43880 36013 ft 492 kts 30°
2026-05-08 15:24 42.23129 7.49044 36014 ft 492 kts 30°
2026-05-08 15:25 42.28788 7.54287 36021 ft 493 kts 30°
2026-05-08 15:25 42.34466 7.59564 36018 ft 493 kts 30°
2026-05-08 15:26 42.40100 7.64815 36023 ft 494 kts 30°
2026-05-08 15:26 42.45770 7.70113 36030 ft 494 kts 30°
2026-05-08 15:27 42.51397 7.75371 36033 ft 494 kts 30°
2026-05-08 15:27 42.57085 7.80695 36027 ft 494 kts 30°
2026-05-08 15:28 42.62720 7.85989 36041 ft 495 kts 30°
2026-05-08 15:28 42.68391 7.91325 36040 ft 494 kts 30°
2026-05-08 15:29 42.74012 7.96638 36044 ft 494 kts 30°
2026-05-08 15:29 42.79671 8.01998 36043 ft 494 kts 30°
2026-05-08 15:30 42.85291 8.07316 36039 ft 493 kts 30°
2026-05-08 15:30 42.90929 8.12668 36042 ft 493 kts 30°
2026-05-08 15:31 42.96568 8.18042 36044 ft 493 kts 30°
2026-05-08 15:31 43.02202 8.23414 36045 ft 493 kts 30°
2026-05-08 15:32 43.07786 8.28752 36042 ft 492 kts 30°
2026-05-08 15:32 43.13402 8.34132 36040 ft 492 kts 30°
2026-05-08 15:33 43.19019 8.39522 36042 ft 492 kts 30°
2026-05-08 15:33 43.24620 8.44913 36042 ft 492 kts 30°
2026-05-08 15:34 43.30219 8.50318 36043 ft 491 kts 30°
2026-05-08 15:34 43.35776 8.55695 36044 ft 490 kts 30°
2026-05-08 15:35 43.41360 8.61115 36034 ft 490 kts 30°
2026-05-08 15:35 43.46930 8.66531 36034 ft 489 kts 30°
2026-05-08 15:36 43.51553 8.71031 36034 ft 489 kts 30°
2026-05-08 15:36 43.58013 8.77326 36034 ft 488 kts 30°
2026-05-08 15:37 43.63568 8.82764 36021 ft 488 kts 30°
2026-05-08 15:37 43.69081 8.88174 36020 ft 488 kts 30°
2026-05-08 15:38 43.74622 8.93623 36026 ft 488 kts 30°
2026-05-08 15:38 43.80165 8.99081 36023 ft 488 kts 30°
2026-05-08 15:39 43.85664 9.04507 36023 ft 488 kts 30°
2026-05-08 15:39 43.91198 9.09993 36023 ft 488 kts 30°
2026-05-08 15:40 43.96726 9.15486 36019 ft 488 kts 30°
2026-05-08 15:40 44.02222 9.20951 36021 ft 488 kts 30°
2026-05-08 15:41 44.07764 9.26467 36025 ft 488 kts 30°
2026-05-08 15:41 44.13256 9.31947 36026 ft 488 kts 30°
2026-05-08 15:42 44.18790 9.37485 36029 ft 488 kts 30°
2026-05-08 15:42 44.24307 9.43035 36030 ft 488 kts 30°
2026-05-08 15:43 44.29787 9.48553 36037 ft 488 kts 30°
2026-05-08 15:43 44.35294 9.54108 36040 ft 487 kts 30°
2026-05-08 15:44 44.40801 9.59675 36045 ft 487 kts 30°
2026-05-08 15:44 44.46265 9.65216 36048 ft 488 kts 31°
2026-05-08 15:45 44.51768 9.70798 36053 ft 488 kts 31°
2026-05-08 15:45 44.57241 9.76363 36053 ft 487 kts 31°
2026-05-08 15:46 44.62737 9.81977 36056 ft 487 kts 31°
2026-05-08 15:46 44.68215 9.87624 36059 ft 489 kts 34°
2026-05-08 15:47 44.73360 9.93953 36068 ft 491 kts 37°
2026-05-08 15:47 44.78456 10.00292 36066 ft 491 kts 38°
2026-05-08 15:48 44.86145 10.09875 36061 ft 491 kts 38°
2026-05-08 15:49 44.91234 10.16234 36060 ft 490 kts 38°
2026-05-08 15:49 44.96351 10.22638 36058 ft 490 kts 38°
2026-05-08 15:50 45.01421 10.29016 36074 ft 490 kts 38°
2026-05-08 15:50 45.06517 10.35440 36076 ft 489 kts 39°
2026-05-08 15:51 45.11611 10.41864 36086 ft 489 kts 39°
2026-05-08 15:51 45.16660 10.48256 36082 ft 489 kts 39°
2026-05-08 15:52 45.21741 10.54693 36082 ft 488 kts 38°
2026-05-08 15:52 45.26077 10.59830 36081 ft 487 kts 36°
2026-05-08 15:53 45.31415 10.65779 36061 ft 487 kts 35°
2026-05-08 15:53 45.36722 10.71697 36052 ft 487 kts 36°
2026-05-08 15:54 45.42027 10.77750 36049 ft 488 kts 37°
2026-05-08 15:54 45.47269 10.83819 36050 ft 488 kts 37°
2026-05-08 15:55 45.52540 10.89919 36055 ft 488 kts 37°
2026-05-08 15:55 45.60457 10.99071 36066 ft 487 kts 38°
2026-05-08 15:56 45.65740 11.05191 36079 ft 488 kts 38°
2026-05-08 15:56 45.70983 11.11278 36102 ft 488 kts 38°
2026-05-08 15:57 45.76266 11.17432 36104 ft 488 kts 38°
2026-05-08 15:57 45.81544 11.23602 36108 ft 489 kts 38°
2026-05-08 15:58 45.86786 11.29746 36110 ft 489 kts 38°
2026-05-08 15:58 45.92075 11.35955 36115 ft 490 kts 38°
2026-05-08 15:59 45.97327 11.42142 36126 ft 490 kts 38°
2026-05-08 15:59 46.02616 11.48387 36125 ft 491 kts 38°
2026-05-08 16:00 46.07870 11.54603 36113 ft 491 kts 39°
2026-05-08 16:00 46.13164 11.60880 36107 ft 492 kts 39°
2026-05-08 16:01 46.18457 11.67169 36097 ft 492 kts 39°
2026-05-08 16:01 46.23719 11.73442 36089 ft 493 kts 39°
2026-05-08 16:02 46.29012 11.79777 36082 ft 493 kts 39°
2026-05-08 16:02 46.34306 11.86120 36073 ft 493 kts 39°
2026-05-08 16:03 46.39565 11.92437 36068 ft 494 kts 39°
2026-05-08 16:03 46.44853 11.98814 36067 ft 494 kts 39°
2026-05-08 16:04 46.50147 12.05216 36065 ft 494 kts 39°
2026-05-08 16:04 46.55405 12.11571 36073 ft 494 kts 39°
2026-05-08 16:05 46.60702 12.17997 36098 ft 494 kts 39°
2026-05-08 16:05 46.65987 12.24434 36102 ft 495 kts 39°
2026-05-08 16:06 46.71229 12.30852 36107 ft 495 kts 39°
2026-05-08 16:06 46.76513 12.37309 36092 ft 495 kts 39°
2026-05-08 16:07 46.81761 12.43742 36084 ft 495 kts 39°
2026-05-08 16:07 46.87023 12.50225 36071 ft 494 kts 39°
2026-05-08 16:08 46.92293 12.56739 36063 ft 495 kts 39°
2026-05-08 16:08 46.97556 12.63245 36051 ft 495 kts 39°
2026-05-08 16:09 47.02792 12.69728 36062 ft 495 kts 39°
2026-05-08 16:09 47.08059 12.76259 36064 ft 496 kts 39°
2026-05-08 16:10 47.13300 12.82792 36069 ft 496 kts 39°
2026-05-08 16:10 47.18563 12.89390 36071 ft 496 kts 39°
2026-05-08 16:11 47.23828 12.96005 36071 ft 496 kts 39°
2026-05-08 16:11 47.29071 13.02581 36073 ft 497 kts 39°
2026-05-08 16:12 47.34342 13.09197 36081 ft 497 kts 39°
2026-05-08 16:12 47.39616 13.15869 36067 ft 498 kts 39°
2026-05-08 16:13 47.44844 13.22513 36071 ft 498 kts 39°
2026-05-08 16:13 47.50109 13.29190 36080 ft 498 kts 36°
2026-05-08 16:14 47.56046 13.34300 36078 ft 491 kts 18°
2026-05-08 16:14 47.62532 13.37247 36073 ft 490 kts 13°
2026-05-08 16:15 47.69114 13.40064 36086 ft 490 kts 13°
2026-05-08 16:15 47.75633 13.42869 36079 ft 491 kts 13°
2026-05-08 16:16 47.82210 13.45697 36084 ft 491 kts 13°
2026-05-08 16:16 47.88791 13.48533 36081 ft 491 kts 13°
2026-05-08 16:17 47.94196 13.51237 36083 ft 493 kts 19°
2026-05-08 16:17 48.01823 13.54549 36081 ft 489 kts
2026-05-08 16:18 48.08423 13.56821 36081 ft 489 kts
2026-05-08 16:18 48.15075 13.59093 36083 ft 490 kts
2026-05-08 16:19 48.21727 13.61382 36090 ft 490 kts
2026-05-08 16:19 48.28378 13.63691 36265 ft 489 kts 11°
2026-05-08 16:20 48.31647 13.64825 36071 ft 485 kts 10°
2026-05-08 16:20 48.34926 13.65960 36052 ft 482 kts 10°
2026-05-08 16:20 48.41472 13.68225 36053 ft 483 kts 10°
2026-05-08 16:21 48.48047 13.70508 36058 ft 484 kts 10°
2026-05-08 16:21 48.54582 13.72804 36067 ft 484 kts 11°
2026-05-08 16:22 48.61160 13.75112 36076 ft 484 kts 11°
2026-05-08 16:22 48.67703 13.77395 36082 ft 485 kts 11°
2026-05-08 16:23 48.74293 13.79703 36089 ft 485 kts 11°
2026-05-08 16:23 48.80869 13.82034 36093 ft 484 kts 11°
2026-05-08 16:24 48.87450 13.84374 36100 ft 485 kts 11°
2026-05-08 16:24 48.93984 13.86691 36105 ft 484 kts 11°
2026-05-08 16:25 49.00553 13.89025 36106 ft 484 kts 11°
2026-05-08 16:25 49.07120 13.91365 36111 ft 484 kts 11°
2026-05-08 16:26 49.13650 13.93705 36112 ft 484 kts 11°
2026-05-08 16:26 49.20224 13.96073 36113 ft 484 kts 11°
2026-05-08 16:27 49.26761 13.98415 36116 ft 484 kts 11°
2026-05-08 16:27 49.33325 14.00772 36117 ft 484 kts 11°
2026-05-08 16:28 49.39862 14.03138 36122 ft 484 kts 11°
2026-05-08 16:28 49.46420 14.05523 36136 ft 483 kts 11°
2026-05-08 16:29 49.52964 14.07910 36146 ft 481 kts 12°
2026-05-08 16:29 49.59476 14.10291 36144 ft 480 kts 12°
2026-05-08 16:30 49.65945 14.12638 36146 ft 479 kts 11°
2026-05-08 16:30 49.72465 14.14779 36142 ft 478 kts
2026-05-08 16:31 49.78991 14.16774 36148 ft 477 kts
2026-05-08 16:31 49.85512 14.18797 36148 ft 477 kts 10°
2026-05-08 16:32 49.91977 14.20865 36148 ft 477 kts 10°
2026-05-08 16:32 49.95223 14.21914 35843 ft 475 kts 10°
2026-05-08 16:32 49.98474 14.22970 35100 ft 475 kts 10°
2026-05-08 16:33 50.01721 14.24024 34358 ft 476 kts 10°
2026-05-08 16:33 50.04971 14.25076 33532 ft 476 kts 11°
2026-05-08 16:33 50.08217 14.26188 32633 ft 477 kts 15°
2026-05-08 16:33 50.11317 14.27875 31793 ft 477 kts 24°
2026-05-08 16:34 50.14329 14.30096 30896 ft 478 kts 26°
2026-05-08 16:34 50.16316 14.31587 30302 ft 478 kts 26°
2026-05-08 16:34 50.20301 14.34582 28853 ft 479 kts 26°
2026-05-08 16:34 50.23313 14.36854 27715 ft 480 kts 26°
2026-05-08 16:35 50.25338 14.38382 27150 ft 477 kts 26°
2026-05-08 16:35 50.28283 14.40607 26412 ft 470 kts 26°
2026-05-08 16:35 50.31214 14.42822 25676 ft 464 kts 26°
2026-05-08 16:35 50.34119 14.45022 24968 ft 459 kts 26°
2026-05-08 16:36 50.36946 14.47171 24307 ft 454 kts 26°
2026-05-08 16:36 50.39808 14.49348 23637 ft 449 kts 26°
2026-05-08 16:36 50.42636 14.51214 22905 ft 444 kts 18°
2026-05-08 16:36 50.45636 14.52312 22147 ft 436 kts
2026-05-08 16:37 50.48638 14.52597 21516 ft 429 kts 356°
2026-05-08 16:37 50.51593 14.52100 20886 ft 422 kts 347°
2026-05-08 16:37 50.54404 14.51082 20262 ft 418 kts 345°
2026-05-08 16:37 50.57228 14.50039 19658 ft 415 kts 345°
2026-05-08 16:38 50.60033 14.49012 19081 ft 411 kts 345°
2026-05-08 16:38 50.62820 14.47996 18520 ft 408 kts 345°
2026-05-08 16:38 50.65582 14.46986 17914 ft 405 kts 345°
2026-05-08 16:38 50.68309 14.45984 17326 ft 401 kts 345°
2026-05-08 16:39 50.70984 14.44795 16760 ft 395 kts 335°
2026-05-08 16:39 50.73297 14.42664 16241 ft 388 kts 319°
2026-05-08 16:39 50.75102 14.39569 15954 ft 374 kts 302°
2026-05-08 16:39 50.76284 14.36004 15828 ft 359 kts 293°
2026-05-08 16:40 50.77292 14.32482 15698 ft 346 kts 293°
2026-05-08 16:40 50.78270 14.29066 15522 ft 335 kts 293°
2026-05-08 16:40 50.79205 14.25791 15036 ft 325 kts 293°
2026-05-08 16:40 50.80118 14.22588 14579 ft 314 kts 293°
2026-05-08 16:41 50.81001 14.19475 14110 ft 305 kts 292°
2026-05-08 16:41 50.81859 14.16445 13630 ft 299 kts 292°
2026-05-08 16:41 50.82707 14.13439 13106 ft 298 kts 292°
2026-05-08 16:42 50.84380 14.07485 12132 ft 294 kts 293°
2026-05-08 16:42 50.85199 14.04573 11639 ft 293 kts 293°
2026-05-08 16:42 50.86029 14.01623 11137 ft 291 kts 293°
2026-05-08 16:42 50.86850 13.98695 10634 ft 289 kts 293°
2026-05-08 16:43 50.87661 13.95798 10162 ft 286 kts 293°
2026-05-08 16:43 50.88464 13.92923 9636 ft 284 kts 293°
2026-05-08 16:43 50.89250 13.90109 9105 ft 282 kts 293°
2026-05-08 16:43 50.90037 13.87284 8585 ft 279 kts 293°
2026-05-08 16:44 50.90819 13.84476 8071 ft 276 kts 293°
2026-05-08 16:44 50.91593 13.81703 7566 ft 273 kts 293°
2026-05-08 16:44 50.92356 13.78966 7068 ft 270 kts 293°
2026-05-08 16:44 50.93112 13.76248 6576 ft 267 kts 293°
2026-05-08 16:45 50.93840 13.73623 6060 ft 259 kts 293°
2026-05-08 16:45 50.94547 13.71053 5543 ft 250 kts 293°
2026-05-08 16:45 50.95233 13.68564 5040 ft 244 kts 294°
2026-05-08 16:45 50.95909 13.66122 4511 ft 237 kts 295°
2026-05-08 16:46 50.96806 13.63943 4036 ft 233 kts 315°
2026-05-08 16:46 50.98074 13.62413 3947 ft 224 kts 333°
2026-05-08 16:46 50.99466 13.61631 3862 ft 208 kts 349°
2026-05-08 16:46 51.00895 13.61514 3715 ft 203 kts
2026-05-08 16:47 51.02255 13.62024 3497 ft 200 kts 21°
2026-05-08 16:47 51.03440 13.63102 3272 ft 192 kts 38°
2026-05-08 16:47 51.04426 13.64444 3012 ft 180 kts 40°
2026-05-08 16:47 51.05344 13.65698 2780 ft 167 kts 40°
2026-05-08 16:48 51.06190 13.66855 2580 ft 152 kts 40°
2026-05-08 16:48 51.06950 13.67897 2366 ft 141 kts 39°
2026-05-08 16:48 51.07682 13.68900 2168 ft 137 kts 39°
2026-05-08 16:48 51.08397 13.69880 1984 ft 134 kts 40°
2026-05-08 16:49 51.09102 13.70855 1764 ft 134 kts 40°
2026-05-08 16:49 51.09810 13.71820 1504 ft 134 kts 40°
2026-05-08 16:49 51.10509 13.72779 1335 ft 133 kts 41°
2026-05-08 16:49 51.11206 13.73728 1110 ft 136 kts 41°
2026-05-08 16:50 51.11921 13.74714 881 ft 136 kts 41°
2026-05-08 16:50 51.12635 13.75694 719 ft 129 kts 41°
2026-05-08 16:50 51.13206 13.76484 715 ft 85 kts 40°
2026-05-08 16:50 51.13522 13.76919 713 ft 35 kts 40°
2026-05-08 16:51 51.13663 13.77109 712 ft 25 kts 40°
2026-05-08 16:51 51.13805 13.77297 717 ft 27 kts 41°
2026-05-08 16:51 51.13900 13.77492 712 ft 16 kts 94°
2026-05-08 16:51 51.13832 13.77639 715 ft 16 kts 130°
2026-05-08 16:52 51.13766 13.77712 711 ft 10 kts 186°
2026-05-08 16:52 51.13711 13.77657 713 ft 9 kts 220°
2026-05-08 16:52 51.13655 13.77580 714 ft 12 kts 220°
2026-05-08 16:52 51.13576 13.77473 711 ft 15 kts 220°
2026-05-08 16:53 51.13420 13.77260 711 ft 15 kts 220°
2026-05-08 16:53 51.13333 13.77140 711 ft 20 kts 221°
2026-05-08 16:53 51.13225 13.76991 713 ft 21 kts 220°
2026-05-08 16:54 51.13114 13.76839 715 ft 21 kts 220°
2026-05-08 16:54 51.13004 13.76688 712 ft 20 kts 221°
2026-05-08 16:54 51.12911 13.76560 711 ft 15 kts 221°
2026-05-08 16:54 51.12834 13.76458 713 ft 14 kts 208°
2026-05-08 16:55 51.12761 13.76512 711 ft 12 kts 130°
2026-05-08 16:55 51.12708 13.76610 713 ft 11 kts 131°
2026-05-08 16:55 51.12659 13.76699 711 ft 10 kts 131°
2026-05-08 16:55 51.12621 13.76739 712 ft 3 kts 189°
2026-05-08 16:56 51.12595 13.76712 713 ft 6 kts 222°
2026-05-08 16:56 51.12573 13.76681 715 ft 2 kts 220°
2026-05-08 16:56 51.12568 13.76675 715 ft 0 kts 220°